Regional Weather Roundup
Issued by NWS

Home | Current Version | Previous Version | Text Only | Print | Product List | Glossary Off
Versions: 1 2 3 4 5 6 7 8 9 10 11 12 13 14 15 16 17 18 19 20 21 22 23 24 25 26 27 28 29 30 31 32 33 34 35 36 37 38 39 40 41 42 43 44 45 46 47 48

000
ASUS45 KSLC 261610
RWRUT

UTAH REGIONAL WEATHER ROUNDUP
NATIONAL WEATHER SERVICE SALT LAKE CITY UT
900 AM MST THU FEB 26 2015

UTZ001>011-023>025-261700-

NORTHERN UTAH

CITY           SKY/WX    TMP DP  RH WIND       PRES   REMARKS
BRIGHAM CITY   CLOUDY    32  23  69 CALM      30.00R
HILL AFB       CLOUDY    37  20  51 SW5       29.97R WCI  33
LOGAN          CLOUDY    29  21  72 SE3       29.99R
OGDEN          CLOUDY    35  23  61 CALM      29.97R
PROVO AIRPORT  PTSUNNY   36  19  51 VRB5      29.98R WCI  32
SALT LAKE CITY CLOUDY    39  26  59 SW5       29.98R
VERNAL         CLOUDY    28  15  58 CALM      30.04S
WENDOVER       CLOUDY    37  28  70 N9        30.01R WCI  31
HEBER CITY     CLOUDY    30  21  69 CALM      29.97S
WEST JORDAN    CLOUDY    37  28  70 NW8       29.98R WCI  31

$$

UTZ012>022-026-027-261700-

SOUTHERN/CENTRAL UTAH

CITY           SKY/WX    TMP DP  RH WIND       PRES   REMARKS
BLANDING       CLOUDY    29  19  65 NE6       30.07F WCI  23
BRYCE CANYON   CLOUDY    25  15  66 CALM      29.97F
CEDAR CITY     CLOUDY    29  22  75 CALM      29.93F
DELTA          CLOUDY    31  16  53 CALM      29.97S
HANKSVILLE     CLOUDY    32  27  80 CALM      30.01S
MILFORD        CLOUDY    32  22  66 CALM      29.94F
MOAB/CYNLANDS  MOSUNNY   34  17  50 SE7       30.00F WCI  28
PRICE          CLOUDY    32  19  58 E9        29.99R WCI  24
ST GEORGE      CLOUDY    43  32  65 S3        29.98R
KANAB            N/A     34  23  64 NW8       30.01S WCI  27

$$

REGIONAL REPORTS     COLORADO/ARIZONA

CITY           SKY/WX    TMP DP  RH WIND       PRES   REMARKS
CRAIG, CO      MOSUNNY   19  13  77 E3        30.03F
GRAND JUNCTION MOSUNNY   31  21  66 SE12      30.05R WCI  22
RIFLE          SUNNY     24  14  65 CALM      30.06S
MONTROSE       SUNNY     20  15  81 S5        30.06S WCI  13
CORTEZ         SUNNY     26  21  81 SE5       30.02R WCI  20
PAGE, AZ       CLOUDY    42  26  53 CALM      29.98R
GRAND CANYON   CLOUDY    33  26  75 E3        30.01S
KINGMAN        PTSUNNY   50  30  46 SW5       29.94R
FLAGSTAFF      CLOUDY    32  17  54 CALM      30.02R

$$

REGIONAL REPORTS    NEVADA/IDAHO/WYOMING

CITY           SKY/WX    TMP DP  RH WIND       PRES   REMARKS
LAS VEGAS, NV  PTSUNNY   51  30  44 SW8       29.89S
ELY            CLOUDY    35  19  52 CALM      29.99R
ELKO           CLOUDY    35  32  88 SW6       30.04R WCI  30
POCATELLO, ID  CLOUDY    30  19  63 CALM      30.01R
BURLEY         CLOUDY    31  19  61 NW5       30.02R WCI  26
EVANSTON, WY   CLOUDY    20  17  88 E10       29.93S WCI   9
ROCK SPRINGS   CLOUDY    16  11  80 E5        29.99S WCI   9

$$



USA.gov is the U.S. government's official web portal to all federal, state and local government web resources and services.